This demonstration page uses our WeatherBlox Daily Observations layout. Learn more.

Left ArrowRight Arrow

41.55636, -103.73856

Hourly Observations for July 15, 2015

Temp ( °F °C ) Dew Point ( °F °C ) Humidity (%) Winds ( mph kmh ) Pressure ( in mb ) Visibility ( mi km ) Precip ( " mm )
12:53 am 00:53 Clear 70 21.1 56 13.3 61 61 SE 10 17 29.82 1010 10 16.0934 0 0
1:53 am 01:53 Clear 68 20 57 13.9 68 68 ESE 9 15 29.81 1009 10 16.0934 0 0
2:53 am 02:53 Clear 67 19.4 57 13.9 71 71 Calm 29.81 1010 10 16.0934 0 0
3:53 am 03:53 Clear 65 18.3 57 13.9 76 76 ESE 5 7 29.83 1010 10 16.0934 0 0
4:53 am 04:53 Partly Cloudy 65 18.3 59 15 81 81 E 7 11 29.85 1011 10 16.0934 0 0
5:53 am 05:53 Mostly Cloudy 66 18.9 59 15 78 78 NE 12 19 29.88 1012 10 16.0934 0 0
6:53 am 06:53 Mostly Cloudy 69 20.6 60 15.6 73 73 ENE 9 15 29.87 1012 10 16.0934 0 0
7:53 am 07:53 Mostly Sunny 70 21.1 60 15.6 71 71 E 9 15 29.87 1012 10 16.0934 0 0
8:53 am 08:53 Cloudy 73 22.8 60 15.6 64 64 ESE 9 15 29.86 1011 10 16.0934 0 0
9:53 am 09:53 Mostly Cloudy 75 23.9 60 15.6 60 60 ESE 9 15 29.88 1012 10 16.0934 0 0
10:53 am 10:53 Sunny 78 25.6 61 16.1 56 56 SE 8 13 29.86 1011 10 16.0934 0 0
11:53 am 11:53 Partly Cloudy 80 26.7 61 16.1 52 52 SSE 7 11 29.85 1011 10 16.0934 0 0
12:53 pm 12:53 Sunny 83 28.3 59 15 44 44 S 6 9 29.83 1010 10 16.0934 0 0
1:53 pm 13:53 Sunny 84 28.9 60 15.6 44 44 VRB 7 11 29.82 1010 10 16.0934 0 0
2:53 pm 14:53 Sunny 85 29.4 59 15 42 42 E 6 9 29.8 1009 10 16.0934 0 0
3:53 pm 15:53 Sunny 83 28.3 58 14.4 43 43 E 6 9 29.79 1009 10 16.0934 0 0
4:53 pm 16:53 Sunny 81 27.2 59 15 47 47 ESE 8 13 29.77 1008 10 16.0934 0 0
5:53 pm 17:53 Sunny 81 27.2 60 15.6 49 49 ESE 12 19 29.76 1008 10 16.0934 0 0
6:53 pm 18:53 Sunny 75 23.9 60 15.6 60 60 S 8 13 29.78 1009 10 16.0934 0 0
7:53 pm 19:53 Sunny 74 23.3 62 16.7 67 67 ENE 3 6 29.8 1009 10 16.0934 0 0
8:53 pm 20:53 Clear 71 21.7 61 16.1 71 71 S 6 9 29.8 1009 10 16.0934 0 0
9:53 pm 21:53 Clear 70 21.1 59 15 68 68 NNW 5 7 29.84 1010 10 16.0934 0 0
10:53 pm 22:53 Clear 65 18.3 56 13.3 73 73 NNE 16 26 29.85 1011 10 16.0934 0 0
11:53 pm 23:53 Clear 64 17.8 56 13.3 75 75 NNW 6 9 29.87 1012 10 16.0934 0 0

Powered by AerisWeather